Location: Bjelajci
(45.0103°N, 16.1758°E)
Time: 18:56:37
(UTC+00:00)

BREEZE-M DEB (TANK) - Pass Details

Date: 14 July 2020
Orbit: 274 x 20503 km, 49.2° (Epoch: 05 August)

Event Time Altitude Azimuth Distance (km) Brightness Sun altitude
Rises 01:56:31 0° 287° (WNW) 2,349 5.8 -12.3°
Reaches altitude 10° 01:57:51 10° 279° (W) 1,765 5.1 -12.2°
Maximum altitude 02:01:11 43° 205° (SSW) 1,271 4.2 -11.8°
Drops below altitude 10° 02:12:40 10° 139° (SE) 5,986 8.0 -10.4°
Sets 02:22:27 0° 136° (SE) 9,726 9.1 -9.2°
